Regional Weather Roundup
Issued by NWS Midland/Odessa, TX

Home | Current Version | Previous Version | Text Only | Print | Product List | Glossary On
Versions: 1 2 3 4 5 6 7 8 9 10 11 12 13 14 15 16 17 18 19 20 21 22 23 24 25 26 27 28 29 30 31 32 33 34 35 36 37 38 39 40 41 42 43 44 45 46 47 48 49 50
000
ASUS44 KMAF 211910
RWRMAF
MIDLAND AREA WEATHER ROUNDUP
NATIONAL WEATHER SERVICE MIDLAND TX
200 PM CDT FRI JUL 21 2017

...IN SOUTHWEST TEXAS AND SOUTHEAST NEW MEXICO...

CITY           SKY/WX    TMP DP  RH WIND       PRES   REMARKS
ALPINE         MOSUNNY   87  58  36 SW9       30.20F
ANDREWS        PTSUNNY   92  59  32 S13G22    30.07S
ARTESIA        SUNNY     93  54  26 E9        30.05F
BIG SPRING     MOSUNNY   95  59  29 S13G25    30.06F
CARLSBAD       MOSUNNY   96  59  29 MISG      30.02F
DRYDEN           N/A     94  68  42 SE10      30.01F
FORT STOCKTON  CLOUDY    82  63  52 SE10      30.06F
GUAD PASS      SUNNY     82  61  48 SW10      30.22F
HOBBS          PTSUNNY   91  55  29 SE13      30.08F
MARFA          MOSUNNY   83  59  44 S8        30.19F
MIDLAND AIRPK  SUNNY     96  56  26 SE10      30.05F
MIDLAND INTL   MOSUNNY   96  58  27 SE20      30.04F
ODESSA         MOSUNNY   95  58  28 S13       30.05F
PECOS          MOSUNNY   95  59  30 CALM      30.00F
PRESIDIO       FAIR      89  64  42 S3        30.07F
SEMINOLE       MOSUNNY   93  57  30 SE10G17   30.08F
SNYDER         MOSUNNY   96  60  30 S16       30.04F
WINK           PTSUNNY   95  60  31 SE7       30.01F
$$
...OTHER STATIONS IN TEXAS...

CITY           SKY/WX    TMP DP  RH WIND       PRES   REMARKS
ABILENE        MOSUNNY   96  63  33 S9G20     30.01F
AMARILLO       SUNNY     95  53  24 S16G25    30.07F
AUSTIN         MOSUNNY   98  68  37 S10G16    29.99F HX 103
BROWNSVILLE    MOSUNNY   92  76  59 SE15      30.00F HX 104
CORPUS CHRISTI MOSUNNY   94  74  52 SE14G23   30.00F HX 104
DALLAS FTW     MOSUNNY   98  71  41 S9        29.97F HX 106
DEL RIO        SUNNY     97  64  33 SE14      29.96F
EL PASO        MOSUNNY   88  60  38 VRB3      30.10F
HOUSTON INT    PTSUNNY   94  72  48 SE3       30.00F HX 102
LUBBOCK        MOSUNNY   93  57  29 S18G25    30.07F
SAN ANGELO     MOSUNNY   98  60  28 SE9G21    30.02F
SAN ANTONIO    MOSUNNY   97  64  33 S14       30.02F
WACO           SUNNY     97  69  40 SE7       29.99F HX 103
WICHITA FALLS  NOT AVBL
$$
...OTHER LOCATIONS IN NEW MEXICO...

CITY           SKY/WX    TMP DP  RH WIND       PRES   REMARKS
ALAMOGORDO     CLOUDY    86  55  35 SW8G20    30.14S
ALBUQUERQUE    MOSUNNY   85  49  28 S8        30.18F
CANNON AFB     MOSUNNY   91  48  22 S14       30.12F
CLOVIS         SUNNY     91  54  28 SE13G21   30.12F
HOLLOMAN AFB   SUNNY     91  58  33 SW7       30.14F
ROSWELL        SUNNY     93  48  21 S6        30.06F
RUIDOSO        CLOUDY    66  54  63 S8        30.36R
SANTA FE       SUNNY     84  49  29 S10G17    30.23F
TRUTH OR CONSE CLOUDY    78  50  37 VRB3      30.18F
TUCUMCARI      SUNNY     95  46  18 S8        30.05F
$$




USA.gov is the U.S. government's official web portal to all federal, state and local government web resources and services.